Showing default

CONNECTA IOT-12, 64553

Orbit data source: Space-Track

CONNECTA IOT-12, 64553 is a payload satellite owned by Plan-S (TR) in SSO that was launched on Mon, 23 Jun 2025 UTC via an FALCON 9 launch vehicle from the Air Force Western Test Range (AFWTR). Payload-class satellites include a variety of spacecraft equipped with specific instruments for various scientific and technological missions. These include communications satellites like Starlink; space stations such as the ISS; scientific satellites like the Hubble; Earth observation satellites from companies like Planet Labs, Umbra, and HawkEye 360; GPS; miniature CubeSats for education and research; and military/defense satellites.

Loading next visibility...
Identifier
64553, 2025-135AB
Orbit
SSO
Country
Flag of TRTR / TURK
Related business
Manufacturer
Plan-S
Mission
Operational Commercial Communications
Bus & Motor
CUBESAT 6U, Unknown motor
Mass
10 kg wet, 10 kg dry
Launch date (UTC)
2025-06-23 (11 months ago)
Launch vehicle
FALCON 9
Launch site
Air Force Western Test Range (AFWTR)
Object type
Payload
Rocket body
Debris
Shape & HBR
Box, 2.2 m
Radar Cross Section
0.080 m², Medium (>0.1 m² and < 1m²)

Expand to show TLE details & history
Last TLE update: 13 hours ago

TLE from 13 hours ago
0 CONNECTA IOT-12
1 64553U 25135AB  26133.07191883  .00002305  00000-0  10802-3 0  9995
2 64553  97.4702 248.8739 0002264 122.4573 237.6881 15.20705168 49534
Epoch: 2026-05-13T01:43Z
TLE epoch observation values (Epoch: 2026-05-13T01:43:33.786Z)
Latitude
-0.0001°
Longitude
-7.85406°
Altitude
507.635 km
Speed
7.61 km/s
True Right ascension
16h 35m 29s
True Declination
0° 00' 00"
Sunlit
Object was in full shadow at epoch
Visualization orbit readout
Latitude
Unknown
Longitude
Unknown
Altitude
Unknown
Speed
Unknown
Apparent Right ascension
Unknown
Apparent Declination
Unknown
Sunlit
N/A
Visualization observer readout
Local Sidereal Time
22:52:33
Azimuth
Unknown
Elevation
Unknown
Doppler factor
Unknown
Orbital elements
Apogee altitude
502.237 km
Perigee altitude
499.123 km
Semi-major axis
6,878.817 km
Eccentricity
0.00023
Inclination
97.4702°
RAAN
248.8739°
Arg. of periapsis
122.4573°
True anomaly
237.66618°
Mean anomaly
237.6881°
Eccentric anomaly
237.67714°
Mean motion
3.80428 °/min
Orbital period
94.63 mins
BSTAR
0.00010802
Loading maneuver chart data...
Computing Atmospheric mass density...
Loading historical data...
Loading historical data...
Loading historical data...
Loading historical data...
Loading historical data...
Loading historical data...
Loading historical data...

Documentation

Showing up to 5 results
|